EHI
6 6 8 10 11 11 11 12 10 6 4 4 2 2 2 1 0 0 0 0 0 0 0 0 0 0 0 0 0 0 0 0 0 0 0 0 0 0
8 7 7 9 10 10 11 12 11 7 5 4 3 3 3 1 1 1 0 0 0 0 0 0 0 0 0 0 0 0 0 0 0 0 0 0 0 0
7 6 5 6 6 7 8 10 10 9 6 5 4 5 4 3 3 2 1 0 0 0 0 0 0 0 0 0 0 0 0 0 0 0 0 0 0 0
2 2 2 2 2 3 4 5 6 8 8 6 6 5 5 5 5 3 1 0 0 0 0 0 0 0 0 0 0 0 0 0 0 0 0 0 0 0
1 0 0 0 1 2 2 2 3 5 7 8 8 7 6 5 5 3 3 3 1 0 0 0 0 0 0 0 0 0 0 0 0 0 0 0 0 0
2 1 0 0 0 1 1 2 2 2 3 6 7 7 5 5 4 4 5 5 3 1 1 1 0 0 0 0 0 0 0 0 0 0 0 0 0 0
6 4 2 0 0 0 1 2 2 1 1 3 4 4 4 4 4 5 5 4 3 3 2 2 1 0 0 0 0 0 0 0 0 0 0 0 0 0
8 7 4 2 0 0 0 1 1 1 2 2 2 2 1 1 2 3 4 3 3 3 3 2 1 0 0 0 0 0 0 0 0 0 0 0 0 0
7 7 6 3 1 1 1 0 0 1 1 1 1 1 0 0 0 1 2 3 3 3 3 2 0 0 0 0 0 0 0 0 0 0 0 0 0 0
4 5 5 4 2 2 1 1 1 1 0 0 1 1 0 0 0 0 1 2 2 3 4 3 1 1 0 0 0 0 0 0 0 0 0 0 0 0
3 4 4 3 1 1 2 2 2 2 1 0 0 0 0 0 0 0 1 1 2 4 5 4 3 3 2 0 0 0 0 0 0 0 0 0 0 0
4 4 2 1 0 0 2 3 3 3 2 2 2 1 0 0 0 1 1 2 2 4 6 5 4 4 4 2 1 0 0 0 0 0 0 0 0 0
4 3 1 0 0 0 1 2 3 3 3 3 4 4 2 2 2 2 3 3 3 4 6 6 4 4 4 4 3 1 0 0 0 0 0 0 0 0
3 2 1 0 0 0 1 1 1 1 3 4 4 4 3 4 5 5 5 6 5 4 5 6 5 3 4 5 5 2 1 0 0 0 0 0 0 0
2 1 0 0 0 0 0 0 0 1 3 3 3 3 2 3 5 6 7 8 7 5 4 6 6 5 5 6 5 4 3 1 1 0 0 0 0 0
1 1 1 1 1 1 1 0 0 1 2 3 3 2 1 1 2 4 5 7 7 6 6 7 7 7 6 6 5 4 4 4 3 2 1 1 0 0
2 2 2 2 2 2 2 1 0 1 1 2 1 1 0 0 1 1 2 3 3 4 6 7 7 7 7 5 4 3 4 5 6 5 3 1 0 0
3 3 3 3 3 3 3 2 1 0 0 0 0 0 0 0 0 0 0 0 1 1 3 4 5 5 5 4 3 3 4 6 7 6 3 1 0 0
2 3 3 3 3 3 3 2 1 0 0 0 0 0 0 0 0 0 0 0 0 0 1 2 3 3 3 3 2 2 3 6 6 4 1 0 0 0
3 3 3 3 3 3 3 2 1 0 0 0 0 0 0 0 0 0 0 0 0 0 1 1 1 2 3 3 2 1 1 4 5 3 1 0 0 0
3 3 3 2 3 3 3 1 0 0 0 0 0 0 0 0 0 0 0 0 0 0 0 0 0 2 3 3 2 1 1 1 3 3 1 0 0 0
3 3 3 3 3 3 2 1 0 0 0 0 0 0 0 0 0 0 0 0 0 0 0 0 0 1 2 1 1 1 1 1 1 1 0 0 0 0
3 3 3 3 3 3 1 0 0 0 0 0 0 0 0 0 0 0 0 0 0 0 0 0 0 1 1 1 2 2 2 2 2 1 0 0 0 0
Wind_Speed
3 3 4 3 3 3 4 4 4 4 2 1 1 1 1 0 2 2 2 5 6 6 7 6 6 6 6 5 5 5 5 5 5 4 4 5 5 5
3 3 4 3 3 3 3 4 4 4 3 2 1 0 1 1 2 2 1 5 6 7 7 7 7 7 7 6 6 6 6 6 5 5 4 4 4 4
3 3 3 3 3 3 3 3 4 4 4 3 1 1 1 2 1 2 3 3 4 7 8 8 8 8 7 7 7 6 6 6 6 5 5 4 4 4
3 3 3 2 3 4 3 3 3 3 4 4 2 1 2 2 2 3 3 3 3 6 8 8 8 8 8 7 7 6 6 6 6 6 5 5 5 4
2 2 3 3 3 3 4 3 3 3 3 4 3 2 2 2 3 3 3 3 4 5 8 9 8 8 8 8 7 7 7 7 6 6 6 5 5 5
2 2 3 3 3 4 3 3 3 3 3 3 3 2 2 2 3 3 3 2 3 3 3 4 6 8 8 8 8 8 8 8 7 7 6 6 6 5
2 1 1 2 3 4 4 4 3 3 3 3 3 2 2 2 3 3 2 2 2 2 2 3 4 5 7 8 9 9 9 8 8 8 7 7 6 6
2 2 1 1 1 2 2 4 4 4 3 3 3 2 3 3 3 3 2 2 2 2 3 3 3 3 4 4 7 9 9 9 9 8 8 7 7 8
2 2 2 1 2 2 2 4 4 4 4 4 4 4 3 3 3 3 3 3 3 1 3 3 3 3 3 3 7 9 8 8 8 8 8 8 8 8
2 2 2 2 2 4 3 2 2 2 3 3 3 4 3 2 3 4 3 3 3 2 2 3 2 3 3 2 7 7 8 8 8 8 9 9 8 8
2 2 3 2 2 4 4 3 2 2 2 2 2 3 3 3 3 3 2 3 3 2 2 3 2 2 3 3 5 9 8 8 8 8 9 9 8 8
2 2 1 2 2 4 4 3 3 3 3 2 3 5 5 4 4 4 3 3 3 2 1 3 3 2 3 3 3 4 5 7 9 9 9 9 9 7
2 1 1 2 1 3 5 4 4 5 5 4 4 3 3 3 3 3 3 4 3 3 1 3 3 4 4 3 3 3 4 4 5 6 9 10 10 9
4 2 2 0 2 4 4 3 5 7 5 3 3 3 2 2 2 3 3 4 4 4 3 3 4 4 5 5 4 3 3 4 4 4 4 7 9 10
3 3 4 4 5 5 5 6 6 5 3 3 3 3 2 2 3 3 4 5 5 5 4 5 5 5 6 6 5 4 4 4 4 4 4 4 4 5
3 2 5 7 7 4 4 5 5 3 3 3 3 3 3 3 3 3 4 4 4 4 4 5 5 6 6 6 6 5 5 4 4 5 5 5 5 5
4 4 4 3 4 3 3 2 3 3 3 3 3 4 3 3 3 3 4 4 4 4 4 4 4 5 6 6 6 5 5 4 4 4 5 6 5 5
4 5 4 4 4 3 3 3 3 2 3 3 3 4 4 4 3 3 4 4 5 4 4 3 4 4 5 4 4 5 5 4 4 4 5 6 6 5
5 5 4 4 4 4 4 3 3 2 3 3 4 4 4 4 4 4 4 4 5 4 4 4 4 5 6 6 4 4 5 5 5 5 5 6 6 5
5 5 4 4 4 4 4 3 3 3 3 4 4 4 4 4 4 4 4 5 5 5 5 4 4 4 6 6 5 5 6 6 5 6 6 6 5 3
5 4 4 4 4 4 4 4 4 4 4 4 4 4 4 5 4 5 5 4 6 6 6 5 3 5 6 6 6 6 4 5 5 6 7 7 6 6
5 5 5 4 4 4 4 4 4 4 4 5 4 4 4 5 5 6 6 5 5 5 6 5 4 5 6 7 7 6 6 4 4 6 6 6 7 6
4 5 5 5 5 4 4 4 5 4 4 5 5 4 5 5 5 5 5 6 6 6 6 5 5 5 6 6 6 6 7 6 5 4 4 4 6 7
Wind_Direction
265 260 270 280 279 282 280 284 285 290 292 211 242 185 252 203 128 213 206 169 186 193 196 195 195 193 191 188 190 193 198 197 198 198 203 207 213 219
273 281 279 278 278 272 270 269 268 275 280 297 274 242 272 244 157 223 235 161 184 194 198 198 198 196 196 194 194 194 198 198 194 195 198 201 208 214
275 270 271 284 286 283 275 271 264 259 262 279 283 153 207 258 196 235 232 227 192 182 195 200 200 199 199 196 194 197 201 201 199 198 200 203 210 214
289 282 279 274 275 281 282 277 273 268 258 260 265 244 230 235 239 247 248 239 232 170 185 196 199 198 200 200 200 201 202 203 203 201 199 201 204 208
307 302 298 293 288 291 282 280 274 270 257 255 260 257 253 241 238 241 244 251 247 175 178 188 194 197 201 202 204 202 201 202 203 202 202 202 204 209
299 299 302 309 310 302 283 281 282 281 265 263 264 255 249 240 241 241 240 228 249 225 189 190 185 196 203 201 202 202 202 203 203 204 204 207 212 216
287 299 324 347 348 325 317 309 290 273 268 265 264 267 256 253 253 258 258 245 240 247 218 212 197 207 195 200 202 203 205 204 205 206 208 212 217 221
294 295 242 176 300 255 294 307 305 286 286 281 268 268 269 266 273 266 264 251 245 216 240 234 218 224 218 202 176 189 200 203 205 207 211 217 220 222
306 301 297 11 290 304 244 229 238 242 250 273 282 282 274 269 272 263 260 262 269 252 244 237 214 224 233 174 154 176 192 204 209 211 214 220 224 227
302 302 305 316 348 318 301 298 288 269 249 249 275 288 297 300 263 266 271 255 246 227 231 248 225 231 235 194 157 177 190 201 210 215 216 217 221 225
284 307 306 305 15 312 279 281 285 260 204 207 260 281 317 322 304 274 256 252 245 219 224 261 259 250 238 217 174 181 192 202 209 214 217 218 219 222
250 211 135 317 337 312 280 278 278 288 291 250 224 227 233 221 224 248 261 263 265 244 192 256 267 273 256 228 210 194 201 203 210 214 216 218 215 225
295 292 83 123 271 285 281 282 292 293 281 272 255 230 218 217 219 226 258 272 272 273 259 252 264 263 264 260 245 235 230 223 212 213 212 213 210 221
295 316 26 130 259 272 272 281 281 276 267 271 276 269 260 251 244 246 241 252 266 276 284 277 270 269 266 262 259 246 238 240 241 241 229 193 203 213
303 339 316 275 249 240 226 248 255 257 270 271 277 283 282 282 265 242 233 229 238 246 243 253 263 267 264 264 265 256 255 250 247 246 244 232 221 208
259 254 237 239 240 254 240 228 241 267 280 281 284 285 280 261 253 253 250 240 240 234 227 236 248 258 263 264 263 259 252 253 249 248 249 248 237 226
309 273 263 255 246 234 235 246 250 243 248 268 282 280 273 268 266 264 265 259 251 249 237 231 238 248 259 269 266 262 261 260 257 256 255 252 247 237
276 269 268 268 273 275 270 256 249 257 267 271 273 278 278 276 274 268 268 264 264 262 260 255 251 252 252 243 249 263 265 267 266 256 257 257 255 244
246 259 265 268 272 275 274 273 271 271 272 267 269 272 272 273 274 272 271 272 269 265 260 259 259 262 266 265 242 232 266 273 269 259 259 260 261 259
246 259 264 264 264 271 278 279 277 269 261 262 265 269 270 270 272 274 274 281 280 274 269 261 257 264 270 279 283 268 238 259 270 270 267 263 264 266
255 261 263 264 268 267 271 271 269 266 265 261 259 267 271 273 273 275 277 276 277 276 272 271 274 254 263 263 265 265 255 232 254 269 273 266 261 254
262 263 262 259 260 262 261 260 260 263 264 261 263 263 265 270 272 275 281 281 277 281 284 282 261 251 258 263 268 270 271 265 247 242 248 261 269 268
258 263 264 259 252 251 255 260 266 267 268 271 267 265 264 263 267 270 273 277 282 284 283 282 280 269 268 270 271 275 276 272 267 261 254 231 229 241